Miami, FL

9:56 PM EST on December 07, 2019 (GMT -0500)
Miami International

Weather History for KMIA - October, 2019

Change the Weather History Date:

Tuesday, October 29, 2019

  Actual Average Record
Temperature  
Mean Temperature 85 °F 78 °F  
Max Temperature 89 °F 84 °F 90 °F (2010)
Min Temperature 81 °F 71 °F 45 °F (1938)
Degree Days  
Heating Degree Days 0 0  
Month to date heating degree days 0 0  
Since 1 July heating degree days 0 0  
Cooling Degree Days 20 13  
Month to date cooling degree days 541 436  
Year to date cooling degree days 4632 4048  
Growing Degree Days 35 (Base 50)    
Moisture  
Dew Point 73 °F    
Average Humidity 67    
Maximum Humidity 79    
Minimum Humidity 55    
Precipitation  
Precipitation 0.01 in 0.14 in 7.52 in (1932)
Month to date precipitation 3.93 6.08  
Year to date precipitation 59.10 56.34  
Snow  
Snow 0.00 in - - ()
Month to date snowfall 0.0  
Since 1 July snowfall 0.0  
Since 1 September snowfall 0.0  
Snow Depth 0.00 in    
Sea Level Pressure  
Sea Level Pressure 30.03 in    
Wind  
Wind Speed 10 mph (East)    
Max Wind Speed 16 mph    
Max Gust Speed 21 mph    
Visibility 10 miles    
Events Rain    
T = Trace of Precipitation, MM = Missing Value Source: NWS Daily Summary

Daily Weather History Graph

Daily Weather History Graph

Search for Another Location

Airport or City:

Astronomy

Oct. 29, 2019 Rise Set
Actual Time 7:27 AM EDT 6:41 PM EDT
Civil Twilight 7:03 AM EDT 7:05 PM EDT
Nautical Twilight 6:36 AM EDT 7:32 PM EDT
Astronomical Twilight 6:09 AM EDT 7:59 PM EDT
Moon 8:54 AM EDT (10/29) 8:12 PM EDT (10/29)
Length of Visible Light 12h 01m
Length of Day
11h 14m
Waxing Crescent, 3% of the Moon is Illuminated
Oct 29
Waxing Crescent
Nov 4
First Quarter
Nov 12
Full
Nov 19
Last Quarter
Nov 26
New

Hourly Weather History & Observations

Time (EDT) Temp. Heat Index Dew Point Humidity Pressure Visibility Wind Dir Wind Speed Gust Speed Precip Events Conditions
12:53 AM 82.0 °F 87.9 °F 73.9 °F 76% 30.05 in 10.0 mi East 9.2 mph - N/A   Scattered Clouds
1:53 AM 82.0 °F 87.9 °F 73.9 °F 76% 30.04 in 10.0 mi East 9.2 mph - N/A   Partly Cloudy
2:53 AM 82.0 °F 87.9 °F 73.9 °F 76% 30.02 in 10.0 mi East 5.8 mph - N/A   Scattered Clouds
3:53 AM 82.0 °F 87.9 °F 73.9 °F 76% 30.01 in 10.0 mi East 6.9 mph - N/A   Scattered Clouds
4:53 AM 82.0 °F 87.9 °F 73.9 °F 76% 30.01 in 10.0 mi East 4.6 mph - N/A   Scattered Clouds
5:53 AM 82.9 °F 89.4 °F 73.9 °F 74% 30.01 in 10.0 mi East 9.2 mph - N/A   Scattered Clouds
6:53 AM 82.0 °F 89.4 °F 75.9 °F 82% 30.02 in 10.0 mi ESE 9.2 mph - 0.01 in   Mostly Cloudy
7:07 AM 82.0 °F 88.6 °F 75.0 °F 79% 30.02 in 10.0 mi East 9.2 mph - N/A   Overcast
7:21 AM 82.0 °F 88.6 °F 75.0 °F 79% 30.03 in 10.0 mi East 8.1 mph - N/A   Scattered Clouds
7:53 AM 82.0 °F 88.6 °F 75.0 °F 79% 30.04 in 10.0 mi East 6.9 mph - N/A   Partly Cloudy
8:53 AM 82.9 °F 89.4 °F 73.9 °F 74% 30.05 in 10.0 mi East 10.4 mph - N/A   Scattered Clouds
9:19 AM 84.9 °F 93.3 °F 75.0 °F 72% 30.06 in 10.0 mi ESE 13.8 mph - N/A   Mostly Cloudy
9:53 AM 86.0 °F 93.0 °F 73.0 °F 65% 30.07 in 10.0 mi East 11.5 mph - N/A   Mostly Cloudy
10:53 AM 84.9 °F 92.1 °F 73.9 °F 69% 30.08 in 10.0 mi East 11.5 mph - 0.00 in   Mostly Cloudy
12:53 PM 87.1 °F 94.5 °F 73.0 °F 63% 30.05 in 10.0 mi East 10.4 mph - N/A   Mostly Cloudy
1:53 PM 88.0 °F 93.8 °F 71.1 °F 57% 30.03 in 10.0 mi ESE 9.2 mph - N/A   Scattered Clouds
2:53 PM 84.9 °F 90.7 °F 72.0 °F 65% 30.01 in 10.0 mi East 11.5 mph - N/A   Mostly Cloudy
3:53 PM 87.1 °F 92.8 °F 71.1 °F 59% 30.01 in 10.0 mi East 12.7 mph - N/A   Scattered Clouds
4:53 PM 87.1 °F 91.3 °F 69.1 °F 55% 30.00 in 10.0 mi East 11.5 mph - N/A   Scattered Clouds
5:53 PM 84.9 °F 88.8 °F 69.1 °F 59% 30.01 in 10.0 mi East 12.7 mph - N/A   Scattered Clouds
6:53 PM 84.0 °F 88.4 °F 70.0 °F 63% 30.01 in 10.0 mi ENE 9.2 mph - N/A   Scattered Clouds
7:53 PM 82.9 °F 88.0 °F 72.0 °F 69% 30.02 in 10.0 mi ENE 8.1 mph - N/A   Scattered Clouds
8:53 PM 82.9 °F 88.8 °F 73.0 °F 72% 30.04 in 10.0 mi ENE 8.1 mph - N/A   Scattered Clouds
9:53 PM 82.9 °F 88.8 °F 73.0 °F 72% 30.05 in 10.0 mi ENE 9.2 mph - 0.00 in Rain Light Rain
10:53 PM 82.9 °F 88.8 °F 73.0 °F 72% 30.06 in 10.0 mi East 10.4 mph - 0.00 in   Partly Cloudy
11:53 PM 82.9 °F 88.8 °F 73.0 °F 72% 30.05 in 10.0 mi ENE 11.5 mph - N/A   Partly Cloudy